Rayong, Thailand

7:46 PM +07 on April 25, 2017 (GMT +0700)
U-Taphao International

Weather History for VTBU - April, 2014

Change the Weather History Date:

Saturday, April 12, 2014

  Actual Average Record
Temperature  
Mean Temperature 85 °F -  
Max Temperature 88 °F 90 °F 95 °F (2004)
Min Temperature 82 °F 80 °F 73 °F (2002)
Cooling Degree Days 20    
Growing Degree Days 35 (Base 50)    
Moisture  
Dew Point 76 °F    
Average Humidity 71    
Maximum Humidity 79    
Minimum Humidity 59    
Precipitation  
Precipitation 0.59 in - - ()
Sea Level Pressure  
Sea Level Pressure 29.79 in    
Wind  
Wind Speed 6 mph ()    
Max Wind Speed 77 mph    
Max Gust Speed -    
Visibility 2.5 miles    
Events Rain , Thunderstorm    
Averages and records for this station are not official NWS values.
T = Trace of Precipitation, MM = Missing Value Source: Averaged Metar Reports

Daily Weather History Graph

Daily Weather History Graph

Search for Another Location

Airport or City:

Trip Planner

Search our weather history database for the weather conditions in past years. The results will help you decide how hot, cold, wet, or windy it might be!

Date:

Astronomy

Apr. 12, 2014 Rise Set
Actual Time 6:04 AM +07 6:26 PM +07
Civil Twilight 5:42 AM +07 6:48 PM +07
Nautical Twilight 5:17 AM +07 7:13 PM +07
Astronomical Twilight 4:52 AM +07 7:38 PM +07
Moon 4:01 PM +07 (4/12) 3:43 AM +07 (4/12)
Length of Visible Light 13h 05m
Length of Day
12h 22m
Waxing Gibbous, 90% of the Moon is Illuminated
Apr 12
Waxing Gibbous
Apr 15
Full
Apr 22
Last Quarter
Apr 29
New
May 7
First Quarter

Hourly Weather History & Observations

Time (+07) Temp. Heat Index Dew Point Humidity Pressure Visibility Wind Dir Wind Speed Gust Speed Precip Events Conditions
12:00 AM 84.2 °F 94.1 °F 77.0 °F 79% 29.80 in 1.9 mi SSW 4.6 mph - N/A   Scattered Clouds
12:30 AM 86.0 °F 96.9 °F 77.0 °F 74% 29.80 in 1.9 mi SSW 4.6 mph - N/A   Scattered Clouds
1:00 AM 85 °F - 78 °F 76% 29.82 in 4 mi SSE 2.3 mph - -   Mist
1:00 AM 84.2 °F 94.1 °F 77.0 °F 79% 29.80 in 1.9 mi SSW 4.6 mph - N/A   Scattered Clouds
1:30 AM 84.2 °F 94.1 °F 77.0 °F 79% 29.77 in 1.9 mi SW 4.6 mph - N/A   Scattered Clouds
2:00 AM 84.2 °F 94.1 °F 77.0 °F 79% 29.77 in 1.9 mi SW 6.9 mph - N/A   Scattered Clouds
2:30 AM 84.2 °F 94.1 °F 77.0 °F 79% 29.77 in 1.9 mi SW 6.9 mph - N/A   Mostly Cloudy
3:00 AM 84.2 °F 94.1 °F 77.0 °F 79% 29.77 in 1.9 mi SW 6.9 mph - N/A   Mostly Cloudy
4:00 AM 85 °F - 78 °F 73% 29.78 in 5 mi South 5.8 mph - -   Mist
4:00 AM 84.2 °F 92.3 °F 75.2 °F 74% 29.77 in 1.9 mi SW 9.2 mph - N/A   Mostly Cloudy
4:30 AM 84.2 °F 92.3 °F 75.2 °F 74% 29.77 in 1.9 mi WSW 8.1 mph - N/A   Mostly Cloudy
5:00 AM 84.2 °F 92.3 °F 75.2 °F 74% 29.77 in 1.9 mi SSW 6.9 mph - N/A   Mostly Cloudy
5:30 AM 84.2 °F 92.3 °F 75.2 °F 74% 29.77 in 1.9 mi SW 77.1 mph - N/A   Mostly Cloudy
6:00 AM 84.2 °F 92.3 °F 75.2 °F 74% 29.80 in 1.9 mi West 6.9 mph - N/A Rain Light Rain
6:30 AM 84.2 °F 92.3 °F 75.2 °F 74% 29.80 in 1.9 mi WSW 4.6 mph - N/A   Mostly Cloudy
7:00 AM 85 °F - 79 °F 77% 29.80 in 5 mi SSE 2.3 mph - -   Mist
7:00 AM 84.2 °F 92.3 °F 75.2 °F 74% 29.80 in 1.9 mi SW 6.9 mph - N/A   Mostly Cloudy
7:30 AM 84.2 °F 92.3 °F 75.2 °F 74% 29.83 in 1.9 mi WSW 9.2 mph - N/A   Mostly Cloudy
8:00 AM 84.2 °F 92.3 °F 75.2 °F 74% 29.83 in 1.9 mi WSW 9.2 mph - N/A   Mostly Cloudy
8:30 AM 86.0 °F 93.4 °F 73.4 °F 66% 29.86 in 1.9 mi WSW 6.9 mph - N/A Thunderstorm Mostly Cloudy
9:00 AM 86.0 °F 95.1 °F 75.2 °F 70% 29.86 in 1.2 mi SW 4.6 mph - N/A Thunderstorm Thunderstorm
9:30 AM 86.0 °F 95.1 °F 75.2 °F 70% 29.86 in 1.2 mi SW 3.5 mph - N/A Thunderstorm Mostly Cloudy
10:00 AM 88 °F - 79 °F 68% 29.86 in 5 mi SSE 2.3 mph - -   Mist
10:00 AM 86.0 °F 95.1 °F 75.2 °F 70% 29.86 in 1.2 mi SSW 5.8 mph - N/A Thunderstorm Thunderstorm
10:30 AM 86.0 °F 95.1 °F 75.2 °F 70% 29.86 in 1.2 mi SSW 6.9 mph - N/A Thunderstorm Mostly Cloudy
11:00 AM 86.0 °F 95.1 °F 75.2 °F 70% 29.86 in 1.2 mi South 6.9 mph - N/A Thunderstorm Thunderstorm
11:30 AM 86.0 °F 95.1 °F 75.2 °F 70% 29.86 in 1.2 mi South 6.9 mph - N/A Thunderstorm Mostly Cloudy
12:00 PM 87.8 °F 97.6 °F 75.2 °F 66% 29.86 in 1.2 mi South 6.9 mph - N/A Thunderstorm Thunderstorm
12:30 PM 84.2 °F 92.3 °F 75.2 °F 74% 29.86 in 1.9 mi North 4.6 mph - N/A Thunderstorm Mostly Cloudy
1:00 PM 82 °F - 76 °F 76% 29.83 in 6 mi Calm Calm - -   Partly Cloudy
1:00 PM 84.2 °F 92.3 °F 75.2 °F 74% 29.83 in 1.9 mi North 4.6 mph - N/A Thunderstorm Mostly Cloudy
1:30 PM 86.0 °F 93.4 °F 73.4 °F 66% 29.83 in 1.9 mi SW 3.5 mph - N/A   Mostly Cloudy
2:00 PM 87.8 °F 95.6 °F 73.4 °F 62% 29.80 in 1.9 mi SW 4.6 mph - N/A   Mostly Cloudy
2:30 PM 87.8 °F 95.6 °F 73.4 °F 62% 29.77 in 1.9 mi SSW 4.6 mph - N/A   Haze
3:00 PM 89.6 °F 99.8 °F 75.2 °F 62% 29.74 in 1.9 mi SW 9.2 mph - N/A   Haze
3:30 PM 89.6 °F 98.2 °F 73.4 °F 59% 29.74 in 2.5 mi SW 9.2 mph - N/A   Haze
4:00 PM 88 °F - 79 °F 68% 29.72 in 6 mi South 2.3 mph - -   Overcast
4:00 PM 87.8 °F 97.6 °F 75.2 °F 66% 29.71 in 2.5 mi South 4.6 mph - N/A   Haze
4:30 PM 87.8 °F 95.6 °F 73.4 °F 62% 29.71 in 2.5 mi SW 9.2 mph - N/A   Haze
5:00 PM 87.8 °F 97.6 °F 75.2 °F 66% 29.71 in 2.5 mi SW 9.2 mph - N/A   Haze
5:30 PM 87.8 °F 97.6 °F 75.2 °F 66% 29.71 in 2.5 mi SSE 9.2 mph - N/A   Mostly Cloudy
6:00 PM 87.8 °F 97.6 °F 75.2 °F 66% 29.71 in 2.5 mi SSE 5.8 mph - N/A   Haze
6:30 PM 86.0 °F 95.1 °F 75.2 °F 70% 29.74 in 2.5 mi SSE 4.6 mph - N/A   Mostly Cloudy
7:00 PM 85 °F - 77 °F 72% 29.75 in 5 mi Calm Calm - -   Mist
7:00 PM 86.0 °F 95.1 °F 75.2 °F 70% 29.74 in 2.5 mi South 3.5 mph - N/A   Haze
7:30 PM 86.0 °F 95.1 °F 75.2 °F 70% 29.74 in 2.5 mi SSE 3.5 mph - N/A   Mostly Cloudy
8:00 PM 86.0 °F 95.1 °F 75.2 °F 70% 29.77 in 2.5 mi SSW 4.6 mph - N/A   Haze
8:30 PM 86.0 °F 95.1 °F 75.2 °F 70% 29.77 in 2.5 mi SSE 9.2 mph - N/A   Mostly Cloudy
9:00 PM 84.2 °F 92.3 °F 75.2 °F 74% 29.77 in 2.5 mi South 3.5 mph - N/A   Haze
9:30 PM 84.2 °F 92.3 °F 75.2 °F 74% 29.80 in 2.5 mi SSE 9.2 mph - N/A   Mostly Cloudy
10:00 PM 85 °F - 78 °F 73% 29.81 in 5 mi Calm Calm - -   Mist
10:00 PM 84.2 °F 94.1 °F 77.0 °F 79% 29.80 in 2.5 mi SSW 3.5 mph - N/A   Mostly Cloudy
10:30 PM 86.0 °F 95.1 °F 75.2 °F 70% 29.83 in 2.5 mi Calm Calm - N/A   Mostly Cloudy
11:00 PM 86.0 °F 96.9 °F 77.0 °F 74% 29.83 in 2.5 mi South 3.5 mph - N/A   Mostly Cloudy
11:30 PM 84.2 °F 92.3 °F 75.2 °F 74% 29.83 in 2.5 mi SSW 3.5 mph - N/A   Mostly Cloudy